COSMOS 1275 DEB, 12771

Orbit data source: Space-Track

COSMOS 1275 DEB, 12771 is space debris in LEO originally from a launch on Thu, 04 Jun 1981 UTC launched from the Plesetsk Missile And Space Complex (PKMTR). Debris objects in space refer to the collection of defunct objects orbiting the Earth. Examples of debris include non-operational satellites, rocket bodies, and fragments generated from explosions, collisions, or faulty payload assembly.

Loading next visibility...
Identifier
12771, 1981-053DQ
Orbit
LEO
Country
Flag of CISCIS
Related business
Manufacturer
Unknown
Mission
Spacecraft
Bus & Motor
Unknown
Mass
Unknown
Launch date (UTC)
1981-06-04 (45 years ago)
Launch vehicle
Unknown
Launch site
Plesetsk Missile And Space Complex (PKMTR)
Object type
Payload
Rocket body
Debris
Shape & HBR
Unknown shape, 0.1 m
Radar Cross Section
Small (<0.1 m²)

Expand to show TLE details & history
Last TLE update: 14 hours ago

TLE from 14 hours ago
0 COSMOS 1275 DEB
1 12771U 81053DQ  25350.83096965  .00001031  00000-0  10944-2 0  9991
2 12771  82.8672 262.1712 0151752 294.1764 128.9003 13.68656107195111
Epoch: 2025-12-16T19:56Z
TLE epoch observation values (Epoch: 2025-12-16T19:56:35.777Z)
Latitude
63.58976°
Longitude
-108.16931°
Altitude
1,086.721 km
Speed
7.279 km/s
True Right ascension
18h 26m 45s
True Declination
63° 27' 31"
Sunlit
Object was in daylight at epoch
Visualization orbit readout
Latitude
Unknown
Longitude
Unknown
Altitude
Unknown
Speed
Unknown
Apparent Right ascension
Unknown
Apparent Declination
Unknown
Sunlit
N/A
Visualization observer readout
Local Sidereal Time
08:35:53
Azimuth
Unknown
Elevation
Unknown
Doppler factor
Unknown
Orbital elements
Apogee altitude
1,113.548 km
Perigee altitude
889.571 km
Semi-major axis
7,379.696 km
Eccentricity
0.01518
Inclination
82.8672°
RAAN
262.1712°
Arg. of periapsis
294.1764°
True anomaly
130.23756°
Mean anomaly
128.9003°
Eccentric anomaly
129.57053°
Mean motion
3.42362 °/min
Orbital period
105.15 mins
BSTAR
0.0010944
Loading maneuver chart data...
Computing Atmospheric mass density...

Documentation

Showing up to 5 results
|